OneWeb SL0124

operational
NORAD ID: 47276 Int'l Des: 2020-100 Owner: ONEWEB Country: UK Constellation: oneweb
LEOCIRCULARPOLARONEWEB_TYPE

关于 OneWeb SL0124

正在加载描述...

实时位置

正在加载3D地球...

即将过境

高度历史

Altitude vs Time

uPlot chart will show altitude changes over time

两行轨道根数

1 47276U 20100U 25351.66919959 -.00000445 00000-0 -12723-2 0 9991
2 47276 87.8936 26.7043 0001722 93.1388 266.9938 13.12450289240830
Epoch: Dec 17, 2025 • Age: 18 hours

当前状态

高度 1243.8 km
速度 7.23 km/s
星下点 -86.01°S, 2.74°E
发射日期 Dec 18, 2020
运行时间 4.9 years
类型 internet

技术详情

分类 Payload
质量 148.00 kg
干质量 140.00 kg
总质量 148.00 kg
长度 1.30 m
直径 1.00 m
跨度 5.00 m
形状 Trapezoid+2 pan
制造商 ONEWUS
平台类型 ARROW
阶段状态 In Orbit
所有者/国家 ONEWEB/UK

大型星座

Loading constellations...